Tracking 19490 objects as of 23-Jan-2019
HD Live streaming from Space Station
objects crossing your sky now

FLOCK 3P 27

Track FLOCK 3P 27 now!
10-day predictions
FLOCK 3P 27 is classified as:


NORAD ID: 41963
Int'l Code: 2017-008R
Perigee: 491.6 km
Apogee: 501.2 km
Inclination: 97.4 °
Period: 94.4 minutes
Semi major axis: 6867 km
RCS: Unknown
Launch date: February 15, 2017
Source: United States (US)
Launch site: SRIHARIKOTA (SRI)
aabbcc
Your satellite tracking list
Your tracking list is empty




NASA's NSSDC Master Catalog

Two Line Element Set (TLE):
1 41963U 17008R   19022.91275181 +.00001462 +00000-0 +60587-4 0  9990
2 41963 097.4249 091.2876 0006980 301.6827 058.3729 15.25500242107438
Source of the keplerian elements: AFSPC